Weather in Muswellbrook

Australia     32°15′34″S   150°53′22″E
temp.,
°C
wind,
m/s
gust,
m/s
humid.,
%
clouds,
%
prec.,
mm/h
press.,
hPa
HPBL,
m
7 march, sun
sun723:00+15se27870 0.0 1014284
02:00+13se24970 0.0 1014153
05:00+12ese12984 0.0 101442
08:00+15ese118611 0.0 1015103
11:00+25ssw01507 0.0 1015930
14:00+29wnw234236 0.0 10131626
17:00+27w134443 0.0 10122113
20:00+20e227360 0.0 101343
8 march, mon
mon823:00+17ene118358 0.0 101524
02:00+16nne11874 0.0 101324
05:00+16n118635 0.0 101327
08:00+19nnw127386 0.0 101593
11:00+27nw585257 0.2 10151360
14:00+29nw694595 0.0 10131788
17:00+28nw575297 0.4 10111606
20:00+20wsw41192100 9.9 1014534
9 march, tue
tue923:00+18nne2494100 11.6 1015179
02:00+17nnw2295100 0.0 101344
05:00+17nnw2395100 0.0 101468
08:00+18nnw259280 0.0 1015214
11:00+25nw476062 0.0 1015912
14:00+30wnw35410 0.0 10131842
17:00+29w35429 0.1 10121613
20:00+21nne237458 0.1 101556
10 march, wed
wed1023:00+18se129267 0.3 101740
02:00+19sse259492 0.1 1017328
05:00+19sse139696 0.2 1017225
08:00+19sse2395100 0.1 1019247
11:00+23se477797 0.2 1020739
14:00+25se577096 2.1 1018864
17:00+21ese598698 6.5 1017444
20:00+19se4109560 2.8 1018460
11 march, thu
thu1123:00+18se369771 3.0 1019284
02:00+18ssw1299100 3.2 1018100
05:00+18e1298100 9.5 101798
08:00+18sse1198100 0.9 101796
11:00+22n2583100 1.9 1016622
14:00+29nw354910 0.1 10141740
17:00+28n345718 1.0 10121394
20:00+20wsw379069 5.6 1014263